Hamilton, OH

12:22 AM EDT on April 20, 2018 (GMT -0400)
Butler County Regional

Weather History for KHAO - November, 2011

Change the Weather History Date:

Thursday, November 24, 2011

  Actual Average (KLUK) Record (KLUK)
Temperature  
Mean Temperature 40 °F -  
Max Temperature 48 °F 49 °F 68 °F (2001)
Min Temperature 33 °F 32 °F 8 °F (1950)
Degree Days  
Heating Degree Days 24    
Moisture  
Dew Point 37 °F    
Average Humidity 81    
Maximum Humidity 93    
Minimum Humidity 71    
Precipitation  
Precipitation 0.00 in - - ()
Sea Level Pressure  
Sea Level Pressure 30.34 in    
Wind  
Wind Speed 4 mph (SSW)    
Max Wind Speed 9 mph    
Max Gust Speed -    
Visibility 5 miles    
Events Fog    
Averages and records for this station are not official NWS values.
T = Trace of Precipitation, MM = Missing Value Source: NWS Daily Summary

Daily Weather History Graph

Daily Weather History Graph

Search for Another Location

Airport or City:

Astronomy

Nov. 24, 2011 Rise Set
Actual Time 7:31 AM EST 5:17 PM EST
Civil Twilight 7:02 AM EST 5:46 PM EST
Nautical Twilight 6:29 AM EST 6:19 PM EST
Astronomical Twilight 5:57 AM EST 6:51 PM EST
Moon 6:48 AM EST (11/24) 4:47 PM EST (11/24)
Length of Visible Light 10h 44m
Length of Day
9h 46m
Waning Crescent, 0% of the Moon is Illuminated
Nov 24
Waning Crescent
Nov 25
New
Dec 2
First Quarter
Dec 10
Full
Dec 17
Last Quarter

Hourly Weather History & Observations

Time (EST) Temp. Windchill Dew Point Humidity Pressure Visibility Wind Dir Wind Speed Gust Speed Precip Events Conditions
12:53 AM 43.0 °F 40.3 °F 37.0 °F 80% 30.33 in 6.0 mi West 4.6 mph - N/A   Haze
1:53 AM 43.0 °F 40.3 °F 37.0 °F 80% 30.33 in 6.0 mi WNW 4.6 mph - N/A   Haze
2:53 AM 43.0 °F - 37.9 °F 82% 30.34 in 6.0 mi Calm Calm - N/A   Haze
3:53 AM 43.0 °F 41.3 °F 37.9 °F 82% 30.32 in 7.0 mi SSW 3.5 mph - N/A   Overcast
4:53 AM 43.0 °F 39.5 °F 37.0 °F 80% 30.33 in 6.0 mi WSW 5.8 mph - N/A   Haze
6:53 AM 42.1 °F 39.2 °F 37.0 °F 82% 30.36 in 6.0 mi Variable 4.6 mph - N/A   Haze
7:53 AM 42.1 °F 38.4 °F 37.0 °F 82% 30.38 in 5.0 mi SW 5.8 mph - N/A   Haze
8:53 AM 42.1 °F 38.4 °F 37.0 °F 82% 30.40 in 3.0 mi SSW 5.8 mph - N/A   Haze
9:00 AM 42.8 °F 38.0 °F 37.4 °F 81% 30.39 in 3.0 mi SSW 8.1 mph - N/A   Haze
9:53 AM 43.0 °F 38.2 °F 37.9 °F 82% 30.40 in 5.0 mi SW 8.1 mph - N/A   Haze
10:29 AM 42.8 °F 38.0 °F 37.4 °F 81% 30.39 in 6.0 mi South 8.1 mph - N/A   Haze
10:53 AM 44.1 °F 40.8 °F 37.9 °F 79% 30.41 in 6.0 mi SW 5.8 mph - N/A   Haze
11:45 AM 44.6 °F 39.7 °F 39.2 °F 81% 30.38 in 5.0 mi SSW 9.2 mph - N/A   Haze
11:53 AM 45.0 °F 41.2 °F 39.0 °F 80% 30.39 in 5.0 mi SSW 6.9 mph - N/A   Haze
12:12 PM 44.6 °F 42.2 °F 39.2 °F 81% 30.36 in 6.0 mi SW 4.6 mph - N/A   Haze
12:53 PM 46.0 °F 43.1 °F 39.0 °F 76% 30.36 in 6.0 mi SSW 5.8 mph - N/A   Haze
1:42 PM 46.4 °F 44.3 °F 39.2 °F 76% 30.34 in 6.0 mi SW 4.6 mph - N/A   Haze
1:53 PM 48.0 °F - 39.9 °F 74% 30.35 in 6.0 mi SSW 5.8 mph - N/A   Haze
2:53 PM 48.9 °F - 39.9 °F 71% 30.35 in 6.0 mi SW 5.8 mph - N/A   Haze
3:23 PM 48.2 °F - 39.2 °F 71% 30.33 in 6.0 mi SSW 4.6 mph - N/A   Haze
3:53 PM 48.0 °F - 39.0 °F 71% 30.33 in 6.0 mi SSW 5.8 mph - N/A   Haze
4:53 PM 46.9 °F - 39.0 °F 74% 30.32 in 8.0 mi South 4.6 mph - N/A   Mostly Cloudy
5:07 PM 46.4 °F 44.3 °F 39.2 °F 76% 30.32 in 9.0 mi SSW 4.6 mph - N/A   Partly Cloudy
5:39 PM 46.4 °F 44.3 °F 39.2 °F 76% 30.33 in 10.0 mi SSW 4.6 mph - N/A   Mostly Cloudy
5:53 PM 46.0 °F 44.8 °F 39.0 °F 76% 30.34 in 10.0 mi SW 3.5 mph - N/A   Mostly Cloudy
6:53 PM 45.0 °F 43.5 °F 37.9 °F 76% 30.34 in 8.0 mi South 3.5 mph - N/A   Scattered Clouds
7:53 PM 41.0 °F - 36.0 °F 82% 30.33 in 7.0 mi Calm Calm - N/A   Clear
8:53 PM 39.9 °F - 35.1 °F 83% 30.31 in 6.0 mi Calm Calm - N/A   Haze
9:53 PM 37.0 °F - 33.1 °F 86% 30.31 in 4.0 mi Calm Calm - N/A   Clear
10:49 PM 35.6 °F - 33.8 °F 93% 30.29 in 1.8 mi Calm Calm - N/A   Clear
10:53 PM 36.0 °F - 33.1 °F 89% 30.31 in 0.8 mi Calm Calm - N/A   Clear
11:22 PM 37.4 °F 34.9 °F 33.8 °F 87% 30.28 in 1.8 mi ESE 3.5 mph - N/A   Clear
11:24 PM 37.4 °F - 33.8 °F 87% 30.28 in 3.0 mi Calm Calm - N/A   Clear
11:28 PM 35.6 °F 32.8 °F 33.8 °F 93% 30.28 in 1.8 mi ESE 3.5 mph - N/A   Clear
11:31 PM 33.8 °F 30.8 °F 30.2 °F 87% 30.28 in 0.8 mi East 3.5 mph - N/A   Clear
11:53 PM 34.0 °F 31.0 °F 32.0 °F 92% 30.29 in 0.2 mi ESE 3.5 mph - N/A Fog Fog